Location: Orange
(33.2833°S, 149.1000°E)
Time: 13:33:23
(UTC+11:00)

Envisat - Visible Passes

Search period start: 05 October 2023 00:00
Search period end: 15 October 2023 00:00
Orbit: 763 x 764 km, 98.2° (Epoch: 04 October)

Date Brightness Start Highest point End Pass type
(mag) Time Alt. Az. Time Alt. Az. Time Alt. Az.
05 Oct 5.6 03:02:00 17° SE 03:02:00 17° SE 03:03:42 10° SSE visible
05 Oct 4.9 04:42:09 16° SW 04:42:09 16° SW 04:43:21 10° SSW visible
06 Oct 4.6 04:04:18 26° SSW 04:04:18 26° SSW 04:06:31 10° SSW visible
07 Oct 4.9 03:26:27 25° SSE 03:26:27 25° SSE 03:28:58 10° S visible
07 Oct 5.1 05:06:36 12° SW 05:06:36 12° SW 05:07:08 10° SW visible
08 Oct 5.7 02:48:35 15° SE 02:48:35 15° SE 02:50:28 10° SSE visible
08 Oct 4.4 04:28:45 25° SW 04:28:45 25° SW 04:30:56 10° SSW visible
09 Oct 4.3 03:50:53 35° S 03:50:53 35° S 03:53:51 10° S visible
10 Oct 5.0 03:13:02 25° SE 03:13:02 25° SE 03:16:04 10° SSE visible
10 Oct 4.6 04:53:11 19° SW 04:53:11 19° SW 04:54:59 10° SW visible
11 Oct 5.9 02:35:11 12° ESE 02:35:11 12° ESE 02:36:48 10° SE visible
11 Oct 3.9 04:15:20 36° SSW 04:15:20 36° SSW 04:18:25 10° SSW visible
12 Oct 4.2 03:37:29 39° SSE 03:37:29 39° SSE 03:41:07 10° S visible
12 Oct 4.9 05:17:39 12° WSW 05:17:39 12° WSW 05:18:19 10° WSW visible
13 Oct 5.2 02:59:39 21° ESE 02:59:39 21° ESE 03:03:01 10° SSE visible
13 Oct 4.1 04:39:47 28° SW 04:39:47 28° SW 04:42:40 10° SSW visible
14 Oct 3.5 04:01:57 52° S 04:01:57 52° S 04:05:50 10° SSW visible
